| time (UTC) | temp F | wind direction | speed MPH | gust MPH | rain 1hr in | rain 24hr in | rain mn in | humidity % | barometer mb |
| 20260510203829 | 62 | 348 | 13.0 | 24.0 | 0.00 | 0.00 | 0.00 | 29 | |
| 20260510203307 | 62 | 359 | 14.0 | 31.0 | 0.00 | 0.00 | 0.00 | 31 | |
| 20260510202806 | 62 | 349 | 11.0 | 20.0 | 0.00 | 0.00 | 0.00 | 31 | |
| 20260510202306 | 62 | 339 | 11.0 | 20.0 | 0.00 | 0.00 | 0.00 | 32 | |
| 20260510201804 | 60 | 330 | 9.0 | 25.0 | 0.00 | 0.00 | 0.00 | 31 | |
| 20260510201304 | 59 | 283 | 5.0 | 16.0 | 0.00 | 0.00 | 0.00 | 32 | |
| 20260510200802 | 59 | 336 | 7.0 | 14.0 | 0.00 | 0.00 | 0.00 | 29 | |
| 20260510200301 | 60 | 299 | 8.0 | 21.0 | 0.00 | 0.00 | 0.00 | 30 | |
| 20260510195800 | 60 | 322 | 10.0 | 23.0 | 0.00 | 0.00 | 0.00 | 31 | |
| 20260510195259 | 60 | 354 | 9.0 | 25.0 | 0.00 | 0.00 | 0.00 | 31 | |
| 20260510194758 | 60 | 330 | 12.0 | 19.0 | 0.00 | 0.00 | 0.00 | 28 | |
| 20260510194257 | 61 | 354 | 9.0 | 18.0 | 0.00 | 0.00 | 0.00 | 30 | |
| 20260510193756 | 60 | 309 | 10.0 | 19.0 | 0.00 | 0.00 | 0.00 | 29 | |
| 20260510193255 | 60 | 317 | 12.0 | 24.0 | 0.00 | 0.00 | 0.00 | 31 | |
| 20260510192815 | 59 | 328 | 10.0 | 18.0 | 0.00 | 0.00 | 0.00 | 31 | |
| 20260510192253 | 59 | 316 | 14.0 | 32.0 | 0.00 | 0.00 | 0.00 | 30 | |
| 20260510191752 | 59 | 296 | 6.0 | 19.0 | 0.00 | 0.00 | 0.00 | 30 | |
| 20260510191251 | 60 | 298 | 10.0 | 18.0 | 0.00 | 0.00 | 0.00 | 29 | |
| 20260510190811 | 61 | 343 | 13.0 | 24.0 | 0.00 | 0.00 | 0.00 | 29 | |
| 20260510190249 | 62 | 301 | 10.0 | 30.0 | 0.00 | 0.00 | 0.00 | 30 | |
| 20260510185748 | 61 | 332 | 11.0 | 21.0 | 0.00 | 0.00 | 0.00 | 30 | |
| 20260510185247 | 59 | 291 | 10.0 | 20.0 | 0.00 | 0.00 | 0.00 | 29 | |
| 20260510184746 | 62 | 274 | 9.0 | 31.0 | 0.00 | 0.00 | 0.00 | 29 | |
| 20260510184245 | 62 | 338 | 12.0 | 21.0 | 0.00 | 0.01 | 0.00 | 29 | |
| 20260510183744 | 61 | 353 | 13.0 | 28.0 | 0.00 | 0.03 | 0.00 | 29 | |
| 20260510183243 | 62 | 329 | 11.0 | 24.0 | 0.00 | 0.03 | 0.00 | 28 | |
| 20260510182742 | 61 | 339 | 7.0 | 19.0 | 0.00 | 0.03 | 0.00 | 28 | |
| 20260510182241 | 60 | 335 | 15.0 | 27.0 | 0.00 | 0.03 | 0.00 | 31 | |
| 20260510181801 | 59 | 331 | 13.0 | 21.0 | 0.00 | 0.03 | 0.00 | 32 | |
| 20260510181300 | 60 | 3 | 13.0 | 26.0 | 0.00 | 0.03 | 0.00 | 29 | |
| 20260510180759 | 61 | 330 | 8.0 | 15.0 | 0.00 | 0.03 | 0.00 | 27 | |
| 20260510180237 | 63 | 4 | 9.0 | 18.0 | 0.00 | 0.03 | 0.00 | 31 | |
| 20260510175757 | 62 | 354 | 13.0 | 21.0 | 0.00 | 0.03 | 0.00 | 29 | |
| 20260510175235 | 61 | 351 | 11.0 | 19.0 | 0.00 | 0.03 | 0.00 | 31 | |
| 20260510174734 | 62 | 342 | 12.0 | 22.0 | 0.00 | 0.03 | 0.00 | 29 | |
| 20260510174233 | 61 | 318 | 13.0 | 29.0 | 0.00 | 0.03 | 0.00 | 29 | |
| 20260510173732 | 61 | 324 | 12.0 | 24.0 | 0.00 | 0.03 | 0.00 | 29 | |
| 20260510173252 | 61 | 344 | 11.0 | 19.0 | 0.00 | 0.03 | 0.00 | 29 | |
| 20260510172730 | 61 | 351 | 13.0 | 24.0 | 0.00 | 0.03 | 0.00 | 29 | |
| 20260510172229 | 62 | 0 | 12.0 | 23.0 | 0.00 | 0.03 | 0.00 | 29 | |
| 20260510171728 | 62 | 17 | 8.0 | 21.0 | 0.00 | 0.03 | 0.00 | 32 | |
| 20260510171227 | 60 | 342 | 7.0 | 17.0 | 0.00 | 0.03 | 0.00 | 29 | |
| 20260510170726 | 62 | 352 | 15.0 | 22.0 | 0.00 | 0.03 | 0.00 | 30 | |
| 20260510170225 | 61 | 354 | 13.0 | 21.0 | 0.00 | 0.03 | 0.00 | 31 | |
| 20260510165724 | 60 | 4 | 15.0 | 24.0 | 0.00 | 0.03 | 0.00 | 31 | |
| 20260510165223 | 60 | 2 | 17.0 | 29.0 | 0.00 | 0.03 | 0.00 | 31 | |
| 20260510164722 | 60 | 343 | 10.0 | 18.0 | 0.00 | 0.03 | 0.00 | 32 | |
| 20260510164221 | 60 | 4 | 10.0 | 17.0 | 0.00 | 0.03 | 0.00 | 32 | |
| 20260510163720 | 59 | 11 | 15.0 | 30.0 | 0.00 | 0.03 | 0.00 | 31 | |
| 20260510163219 | 59 | 342 | 12.0 | 21.0 | 0.00 | 0.03 | 0.00 | 30 | |
| 20260510162717 | 60 | 354 | 14.0 | 27.0 | 0.00 | 0.03 | 0.00 | 32 | |
| 20260510162216 | 59 | 302 | 8.0 | 15.0 | 0.00 | 0.03 | 0.00 | 30 | |
| 20260510161716 | 58 | 342 | 15.0 | 33.0 | 0.00 | 0.03 | 0.00 | 33 | |
| 20260510161215 | 58 | 321 | 16.0 | 29.0 | 0.00 | 0.03 | 0.00 | 33 | |
| 20260510160714 | 58 | 315 | 13.0 | 27.0 | 0.00 | 0.03 | 0.00 | 31 | |
| 20260510160213 | 59 | 352 | 13.0 | 20.0 | 0.00 | 0.03 | 0.00 | 35 | |
| 20260510155732 | 58 | 0 | 13.0 | 20.0 | 0.00 | 0.03 | 0.00 | 35 | |
| 20260510155210 | 58 | 344 | 13.0 | 24.0 | 0.00 | 0.03 | 0.00 | 34 | |
| 20260510154710 | 57 | 346 | 10.0 | 23.0 | 0.00 | 0.03 | 0.00 | 36 | |
| 20260510154209 | 57 | 329 | 12.0 | 22.0 | 0.00 | 0.03 | 0.00 | 32 | |
| 20260510153707 | 58 | 338 | 13.0 | 24.0 | 0.00 | 0.03 | 0.00 | 33 | |
| 20260510153207 | 58 | 354 | 12.0 | 23.0 | 0.00 | 0.03 | 0.00 | 33 | |
| 20260510152706 | 59 | 330 | 11.0 | 28.0 | 0.00 | 0.03 | 0.00 | 34 | |
| 20260510152205 | 58 | 353 | 9.0 | 19.0 | 0.00 | 0.03 | 0.00 | 35 | |
| 20260510151703 | 57 | 329 | 12.0 | 28.0 | 0.00 | 0.03 | 0.00 | 33 | |
| 20260510151203 | 57 | 346 | 12.0 | 23.0 | 0.00 | 0.03 | 0.00 | 35 | |
| 20260510150702 | 56 | 313 | 9.0 | 21.0 | 0.00 | 0.03 | 0.00 | 35 | |
| 20260510150221 | 56 | 335 | 8.0 | 15.0 | 0.00 | 0.03 | 0.00 | 35 | |
| 20260510145659 | 56 | 339 | 9.0 | 13.0 | 0.00 | 0.03 | 0.00 | 35 | |
| 20260510145159 | 56 | 4 | 9.0 | 14.0 | 0.00 | 0.03 | 0.00 | 38 | |
| 20260510144657 | 56 | 358 | 10.0 | 23.0 | 0.00 | 0.03 | 0.00 | 38 | |
| 20260510144157 | 55 | 358 | 12.0 | 23.0 | 0.00 | 0.03 | 0.00 | 39 | |
| 20260510143655 | 55 | 351 | 9.0 | 19.0 | 0.00 | 0.03 | 0.00 | 38 | |
| 20260510143155 | 54 | 346 | 13.0 | 27.0 | 0.00 | 0.03 | 0.00 | 40 | |
| 20260510142653 | 54 | 321 | 6.0 | 15.0 | 0.00 | 0.03 | 0.00 | 40 | |
| 20260510142152 | 54 | 326 | 7.0 | 13.0 | 0.00 | 0.03 | 0.00 | 42 | |
| 20260510141651 | 54 | 271 | 5.0 | 13.0 | 0.00 | 0.03 | 0.00 | 41 | |
| 20260510141150 | 54 | 11 | 4.0 | 16.0 | 0.00 | 0.03 | 0.00 | 44 | |
| 20260510140650 | 53 | 350 | 6.0 | 14.0 | 0.00 | 0.03 | 0.00 | 43 | |
| 20260510140148 | 53 | 347 | 3.0 | 8.0 | 0.00 | 0.03 | 0.00 | 44 | |
| 20260510135647 | 52 | 209 | 3.0 | 7.0 | 0.00 | 0.03 | 0.00 | 44 | |
| 20260510135146 | 52 | 303 | 5.0 | 10.0 | 0.00 | 0.03 | 0.00 | 43 | |
| 20260510134645 | 52 | 346 | 8.0 | 12.0 | 0.00 | 0.03 | 0.00 | 44 | |
| 20260510134144 | 52 | 333 | 2.0 | 11.0 | 0.00 | 0.03 | 0.00 | 44 | |
| 20260510133644 | 52 | 7 | 8.0 | 14.0 | 0.00 | 0.03 | 0.00 | 45 | |
| 20260510133142 | 52 | 13 | 9.0 | 16.0 | 0.00 | 0.03 | 0.00 | 46 | |
| 20260510132642 | 51 | 342 | 7.0 | 14.0 | 0.00 | 0.03 | 0.00 | 46 | |
| 20260510132140 | 51 | 4 | 7.0 | 17.0 | 0.00 | 0.03 | 0.00 | 47 | |
| 20260510131639 | 50 | 1 | 8.0 | 15.0 | 0.00 | 0.03 | 0.00 | 47 | |
| 20260510131200 | 50 | 342 | 7.0 | 14.0 | 0.00 | 0.03 | 0.00 | 45 | |
| 20260510130637 | 50 | 352 | 6.0 | 15.0 | 0.00 | 0.03 | 0.00 | 48 | |
| 20260510130157 | 49 | 355 | 10.0 | 15.0 | 0.00 | 0.03 | 0.00 | 47 | |
| 20260510125635 | 49 | 349 | 7.0 | 14.0 | 0.00 | 0.03 | 0.00 | 47 | |
| 20260510125155 | 49 | 18 | 5.0 | 11.0 | 0.00 | 0.03 | 0.00 | 50 | |
| 20260510124633 | 49 | 8 | 4.0 | 11.0 | 0.00 | 0.03 | 0.00 | 49 | |
| 20260510124132 | 48 | 3 | 7.0 | 13.0 | 0.00 | 0.03 | 0.00 | 50 | |
| 20260510123631 | 48 | 352 | 6.0 | 12.0 | 0.00 | 0.03 | 0.00 | 51 | |
| 20260510123151 | 48 | 359 | 4.0 | 10.0 | 0.00 | 0.03 | 0.00 | 53 | |
| 20260510122629 | 48 | 3 | 2.0 | 8.0 | 0.00 | 0.03 | 0.00 | 53 | |
| 20260510122128 | 47 | 349 | 5.0 | 14.0 | 0.00 | 0.03 | 0.00 | 53 | |
| 20260510121627 | 46 | 350 | 7.0 | 13.0 | 0.00 | 0.03 | 0.00 | 55 | |
| 20260510121126 | 46 | 355 | 8.0 | 15.0 | 0.00 | 0.03 | 0.00 | 55 | |
| 20260510120625 | 45 | 358 | 13.0 | 18.0 | 0.00 | 0.03 | 0.00 | 56 | |
| 20260510120145 | 45 | 358 | 8.0 | 14.0 | 0.00 | 0.03 | 0.00 | 58 | |
| 20260510115623 | 44 | 347 | 8.0 | 17.0 | 0.00 | 0.03 | 0.00 | 59 | |
| 20260510115143 | 44 | 12 | 6.0 | 11.0 | 0.00 | 0.03 | 0.00 | 61 | |
| 20260510114642 | 44 | 1 | 3.0 | 8.0 | 0.00 | 0.03 | 0.00 | 62 | |
| 20260510114141 | 43 | 13 | 6.0 | 13.0 | 0.00 | 0.03 | 0.00 | 62 | |
| 20260510113640 | 43 | 6 | 8.0 | 17.0 | 0.00 | 0.03 | 0.00 | 63 | |
| 20260510113118 | 43 | 5 | 5.0 | 13.0 | 0.00 | 0.03 | 0.00 | 64 | |
| 20260510112617 | 42 | 0 | 6.0 | 10.0 | 0.00 | 0.03 | 0.00 | 66 | |
| 20260510112116 | 42 | 3 | 7.0 | 12.0 | 0.00 | 0.03 | 0.00 | 68 | |
| 20260510111615 | 41 | 6 | 7.0 | 13.0 | 0.00 | 0.03 | 0.00 | 70 | |
| 20260510111114 | 40 | 353 | 6.0 | 11.0 | 0.00 | 0.03 | 0.00 | 72 | |
| 20260510110613 | 40 | 355 | 4.0 | 7.0 | 0.00 | 0.03 | 0.00 | 72 | |
| 20260510110112 | 40 | 350 | 4.0 | 6.0 | 0.00 | 0.03 | 0.00 | 74 | |
| 20260510105611 | 39 | 0 | 4.0 | 6.0 | 0.00 | 0.03 | 0.00 | 75 | |
| 20260510105110 | 39 | 352 | 3.0 | 7.0 | 0.00 | 0.03 | 0.00 | 76 | |
| 20260510104609 | 39 | 354 | 3.0 | 6.0 | 0.00 | 0.03 | 0.00 | 79 | |
| 20260510104108 | 39 | 349 | 4.0 | 7.0 | 0.00 | 0.03 | 0.00 | 78 | |
| 20260510103607 | 39 | 358 | 2.0 | 3.0 | 0.00 | 0.03 | 0.00 | 78 | |
| 20260510103107 | 39 | 356 | 3.0 | 6.0 | 0.00 | 0.03 | 0.00 | 79 | |
| 20260510102605 | 39 | 357 | 4.0 | 6.0 | 0.00 | 0.03 | 0.00 | 80 | |
| 20260510102104 | 39 | 349 | 3.0 | 6.0 | 0.00 | 0.03 | 0.00 | 80 | |
| 20260510101603 | 39 | 6 | 3.0 | 6.0 | 0.00 | 0.03 | 0.00 | 79 | |
| 20260510101102 | 39 | 356 | 2.0 | 5.0 | 0.00 | 0.03 | 0.00 | 79 | |
| 20260510100601 | 39 | 338 | 1.0 | 5.0 | 0.00 | 0.03 | 0.00 | 79 | |
| 20260510100100 | 39 | 3 | 1.0 | 4.0 | 0.00 | 0.03 | 0.00 | 79 | |
| 20260510095559 | 39 | 4 | 2.0 | 7.0 | 0.00 | 0.03 | 0.00 | 76 | |
| 20260510095058 | 40 | 3 | 0.0 | 0.0 | 0.00 | 0.03 | 0.00 | 75 | |
| 20260510094557 | 40 | 3 | 0.0 | 0.0 | 0.00 | 0.03 | 0.00 | 75 | |
| 20260510094117 | 40 | 3 | 0.0 | 0.0 | 0.00 | 0.03 | 0.00 | 74 | |
| 20260510093555 | 41 | 0 | 1.0 | 3.0 | 0.00 | 0.03 | 0.00 | 72 | |
| 20260510093054 | 41 | 354 | 1.0 | 4.0 | 0.00 | 0.03 | 0.00 | 69 | |
| 20260510092553 | 42 | 342 | 0.0 | 0.0 | 0.00 | 0.03 | 0.00 | 68 | |
| 20260510092052 | 42 | 345 | 2.0 | 6.0 | 0.00 | 0.03 | 0.00 | 67 | |
| 20260510091551 | 43 | 0 | 3.0 | 7.0 | 0.00 | 0.03 | 0.00 | 66 | |
| 20260510091050 | 43 | 356 | 5.0 | 10.0 | 0.00 | 0.03 | 0.00 | 66 | |
| 20260510090549 | 43 | 3 | 6.0 | 11.0 | 0.00 | 0.03 | 0.00 | 66 | |
| 20260510090048 | 43 | 0 | 9.0 | 17.0 | 0.00 | 0.03 | 0.00 | 66 | |
| 20260510085547 | 43 | 357 | 9.0 | 16.0 | 0.00 | 0.03 | 0.00 | 66 | |
| 20260510085046 | 43 | 359 | 7.0 | 13.0 | 0.00 | 0.03 | 0.00 | 66 | |
| 20260510084606 | 43 | 356 | 8.0 | 14.0 | 0.00 | 0.03 | 0.00 | 65 | |
| 20260510084044 | 43 | 358 | 8.0 | 13.0 | 0.00 | 0.03 | 0.00 | 66 | |
| 20260510083543 | 44 | 352 | 8.0 | 16.0 | 0.00 | 0.03 | 0.00 | 65 | |
| 20260510083103 | 43 | 355 | 7.0 | 15.0 | 0.00 | 0.03 | 0.00 | 65 | |
| 20260510082540 | 44 | 2 | 5.0 | 11.0 | 0.00 | 0.03 | 0.00 | 65 | |
| 20260510082040 | 44 | 5 | 6.0 | 16.0 | 0.00 | 0.03 | 0.00 | 64 | |
| 20260510081559 | 44 | 355 | 8.0 | 14.0 | 0.00 | 0.03 | 0.00 | 63 | |
| 20260510081038 | 44 | 2 | 9.0 | 16.0 | 0.00 | 0.03 | 0.00 | 63 | |
| 20260510080557 | 45 | 359 | 9.0 | 14.0 | 0.00 | 0.03 | 0.00 | 62 | |
| 20260510080036 | 45 | 353 | 9.0 | 17.0 | 0.00 | 0.03 | 0.00 | 62 | |
| 20260510075556 | 45 | 358 | 9.0 | 15.0 | 0.00 | 0.03 | 0.00 | 61 | |
| 20260510075033 | 45 | 3 | 8.0 | 16.0 | 0.00 | 0.03 | 0.00 | 62 | |
| 20260510074533 | 45 | 8 | 9.0 | 17.0 | 0.00 | 0.03 | 0.00 | 61 | |
| 20260510074032 | 45 | 8 | 7.0 | 17.0 | 0.00 | 0.03 | 0.00 | 62 | |
| 20260510073531 | 45 | 4 | 8.0 | 20.0 | 0.00 | 0.03 | 0.00 | 63 | |
| 20260510073030 | 45 | 6 | 5.0 | 13.0 | 0.00 | 0.03 | 0.00 | 64 | |
| 20260510072528 | 45 | 6 | 6.0 | 17.0 | 0.00 | 0.03 | 0.00 | 65 | |
| 20260510072027 | 45 | 359 | 5.0 | 11.0 | 0.00 | 0.03 | 0.00 | 65 | |
| 20260510071526 | 45 | 0 | 4.0 | 8.0 | 0.00 | 0.03 | 0.00 | 62 | |
| 20260510071025 | 46 | 3 | 4.0 | 11.0 | 0.00 | 0.03 | 0.00 | 61 | |
| 20260510070525 | 46 | 12 | 5.0 | 11.0 | 0.00 | 0.03 | 0.00 | 60 | |
| 20260510070024 | 46 | 6 | 3.0 | 10.0 | 0.00 | 0.03 | 0.00 | 60 | |
| 20260510065523 | 46 | 20 | 5.0 | 13.0 | 0.00 | 0.03 | 0.00 | 60 | |
| 20260510065021 | 46 | 22 | 5.0 | 9.0 | 0.00 | 0.03 | 0.00 | 61 | |
| 20260510064520 | 46 | 10 | 5.0 | 11.0 | 0.00 | 0.03 | 0.00 | 64 | |
| 20260510064020 | 46 | 9 | 7.0 | 13.0 | 0.00 | 0.03 | 0.00 | 67 | |
| 20260510063519 | 46 | 5 | 4.0 | 14.0 | 0.00 | 0.03 | 0.00 | 68 | |
| 20260510063018 | 47 | 5 | 0.0 | 3.0 | 0.00 | 0.03 | 0.00 | 66 | |
| 20260510062538 | 47 | 38 | 1.0 | 7.0 | 0.00 | 0.03 | 0.00 | 65 | |
| 20260510062037 | 47 | 17 | 2.0 | 5.0 | 0.00 | 0.03 | 0.00 | 66 | |
| 20260510061515 | 47 | 6 | 5.0 | 12.0 | 0.00 | 0.03 | 0.00 | 66 | |
| 20260510061013 | 47 | 9 | 4.0 | 9.0 | 0.00 | 0.03 | 0.00 | 67 | |
| 20260510060512 | 47 | 4 | 1.0 | 3.0 | 0.00 | 0.03 | 0.00 | 67 | |
| 20260510060012 | 48 | 8 | 1.0 | 4.0 | 0.00 | 0.03 | 0.00 | 66 | |
| 20260510055511 | 48 | 13 | 1.0 | 4.0 | 0.00 | 0.03 | 0.00 | 66 | |
| 20260510055009 | 48 | 22 | 3.0 | 9.0 | 0.00 | 0.03 | 0.00 | 66 | |
| 20260510054509 | 48 | 6 | 4.0 | 12.0 | 0.00 | 0.03 | 0.00 | 66 | |
| 20260510054007 | 49 | 13 | 0.0 | 0.0 | 0.00 | 0.03 | 0.00 | 66 | |
| 20260510053507 | 49 | 13 | 0.0 | 3.0 | 0.00 | 0.03 | 0.00 | 65 | |
| 20260510053005 | 49 | 13 | 0.0 | 3.0 | 0.00 | 0.03 | 0.00 | 64 | |
| 20260510052504 | 49 | 8 | 1.0 | 5.0 | 0.00 | 0.03 | 0.00 | 64 | |
| 20260510052003 | 50 | 24 | 3.0 | 11.0 | 0.00 | 0.03 | 0.00 | 63 | |
| 20260510051502 | 50 | 6 | 2.0 | 5.0 | 0.00 | 0.03 | 0.00 | 64 | |
| 20260510051001 | 50 | 1 | 3.0 | 7.0 | 0.00 | 0.03 | 0.00 | 64 | |
| 20260510050500 | 50 | 20 | 3.0 | 10.0 | 0.00 | 0.03 | 0.00 | 64 | |
| 20260510050030 | 50 | 16 | 2.0 | 6.0 | 0.00 | 0.03 | 0.00 | 63 | |
| 20260510045959 | 50 | 16 | 2.0 | 6.0 | 0.00 | 0.03 | 0.00 | 63 | |
| 20260510045458 | 51 | 21 | 0.0 | 3.0 | 0.00 | 0.03 | 0.00 | 61 | |
| 20260510044957 | 51 | 339 | 0.0 | 0.0 | 0.00 | 0.03 | 0.00 | 61 | |
| 20260510044456 | 51 | 4 | 1.0 | 5.0 | 0.00 | 0.03 | 0.00 | 60 | |
| 20260510043956 | 51 | 10 | 3.0 | 7.0 | 0.00 | 0.03 | 0.00 | 60 | |
| 20260510043454 | 51 | 19 | 5.0 | 14.0 | 0.00 | 0.03 | 0.00 | 61 | |
| 20260510042953 | 51 | 16 | 3.0 | 8.0 | 0.00 | 0.03 | 0.00 | 62 | |
| 20260510042452 | 51 | 2 | 0.0 | 2.0 | 0.00 | 0.03 | 0.00 | 62 | |
| 20260510041951 | 51 | 28 | 1.0 | 5.0 | 0.00 | 0.03 | 0.00 | 63 | |
| 20260510041450 | 52 | 9 | 4.0 | 9.0 | 0.00 | 0.03 | 0.00 | 63 | |
| 20260510040949 | 52 | 358 | 4.0 | 7.0 | 0.00 | 0.03 | 0.00 | 61 | |
| 20260510040448 | 52 | 359 | 3.0 | 7.0 | 0.00 | 0.03 | 0.00 | 60 | |
| 20260510035947 | 53 | 343 | 1.0 | 5.0 | 0.00 | 0.03 | 0.03 | 58 | |
| 20260510035507 | 53 | 352 | 3.0 | 9.0 | 0.00 | 0.03 | 0.03 | 56 | |
| 20260510034945 | 53 | 7 | 3.0 | 8.0 | 0.00 | 0.03 | 0.03 | 57 | |
| 20260510034444 | 54 | 357 | 5.0 | 7.0 | 0.00 | 0.03 | 0.03 | 55 | |
| 20260510033943 | 54 | 2 | 4.0 | 7.0 | 0.00 | 0.03 | 0.03 | 55 | |
| 20260510033442 | 54 | 351 | 6.0 | 15.0 | 0.00 | 0.03 | 0.03 | 54 | |
| 20260510032941 | 55 | 353 | 6.0 | 11.0 | 0.00 | 0.03 | 0.03 | 53 | |
| 20260510032440 | 55 | 351 | 8.0 | 13.0 | 0.00 | 0.03 | 0.03 | 52 | |
| 20260510031939 | 55 | 0 | 9.0 | 18.0 | 0.00 | 0.03 | 0.03 | 52 | |
| 20260510031439 | 55 | 357 | 6.0 | 13.0 | 0.00 | 0.03 | 0.03 | 51 | |
| 20260510030937 | 56 | 356 | 6.0 | 15.0 | 0.00 | 0.03 | 0.03 | 50 | |
| 20260510030436 | 56 | 351 | 10.0 | 17.0 | 0.00 | 0.03 | 0.03 | 50 | |
| 20260510025935 | 56 | 357 | 10.0 | 23.0 | 0.00 | 0.03 | 0.03 | 49 | |
| 20260510025434 | 56 | 351 | 14.0 | 26.0 | 0.00 | 0.03 | 0.03 | 48 | |
| 20260510024954 | 56 | 356 | 13.0 | 25.0 | 0.00 | 0.03 | 0.03 | 49 | |
| 20260510024432 | 57 | 357 | 9.0 | 18.0 | 0.00 | 0.03 | 0.03 | 48 | |
| 20260510023952 | 57 | 352 | 13.0 | 25.0 | 0.00 | 0.03 | 0.03 | 48 | |
| 20260510023451 | 57 | 351 | 15.0 | 30.0 | 0.00 | 0.03 | 0.03 | 47 | |
| 20260510022950 | 58 | 4 | 11.0 | 23.0 | 0.00 | 0.03 | 0.03 | 46 | |
| 20260510022428 | 58 | 359 | 13.0 | 21.0 | 0.00 | 0.03 | 0.03 | 46 | |
| 20260510021927 | 58 | 3 | 15.0 | 27.0 | 0.00 | 0.03 | 0.03 | 46 | |
| 20260510021426 | 58 | 357 | 15.0 | 23.0 | 0.00 | 0.03 | 0.03 | 45 | |
| 20260510020946 | 59 | 4 | 13.0 | 22.0 | 0.00 | 0.03 | 0.03 | 45 | |
| 20260510020424 | 59 | 354 | 19.0 | 40.0 | 0.00 | 0.03 | 0.03 | 44 | |
| 20260510015923 | 60 | 357 | 17.0 | 41.0 | 0.00 | 0.03 | 0.03 | 44 | |
| 20260510015422 | 60 | 348 | 15.0 | 30.0 | 0.00 | 0.03 | 0.03 | 45 | |
| 20260510014942 | 61 | 353 | 17.0 | 31.0 | 0.00 | 0.03 | 0.03 | 46 | |
| 20260510014420 | 61 | 353 | 14.0 | 34.0 | 0.00 | 0.03 | 0.03 | 47 | |
| 20260510013919 | 61 | 353 | 13.0 | 21.0 | 0.00 | 0.03 | 0.03 | 48 | |
| 20260510013418 | 60 | 350 | 9.0 | 22.0 | 0.00 | 0.03 | 0.03 | 49 | |
| 20260510012917 | 60 | 349 | 8.0 | 17.0 | 0.00 | 0.03 | 0.03 | 50 | |
| 20260510012416 | 60 | 2 | 8.0 | 12.0 | 0.00 | 0.03 | 0.03 | 50 | |
| 20260510011915 | 60 | 351 | 7.0 | 13.0 | 0.00 | 0.03 | 0.03 | 50 | |
| 20260510011414 | 60 | 353 | 10.0 | 17.0 | 0.00 | 0.03 | 0.03 | 50 | |
| 20260510010913 | 60 | 354 | 8.0 | 13.0 | 0.00 | 0.03 | 0.03 | 50 | |
| 20260510010417 | 60 | 357 | 9.0 | 15.0 | 0.00 | 0.03 | 0.03 | 50 | |
| 20260510005932 | 60 | 357 | 7.0 | 15.0 | 0.00 | 0.03 | 0.03 | 50 | |
| 20260510005431 | 61 | 358 | 5.0 | 10.0 | 0.00 | 0.03 | 0.03 | 50 | |
| 20260510004909 | 61 | 358 | 6.0 | 12.0 | 0.00 | 0.03 | 0.03 | 50 | |
| 20260510004408 | 61 | 358 | 4.0 | 9.0 | 0.00 | 0.03 | 0.03 | 50 | |
| 20260510003906 | 62 | 355 | 4.0 | 11.0 | 0.00 | 0.03 | 0.03 | 50 | |
| 20260510003406 | 62 | 353 | 4.0 | 6.0 | 0.00 | 0.03 | 0.03 | 50 | |
| 20260510002905 | 62 | 357 | 4.0 | 9.0 | 0.00 | 0.03 | 0.03 | 51 | |
| 20260510002403 | 63 | 352 | 4.0 | 9.0 | 0.00 | 0.03 | 0.03 | 48 | |
| 20260510001903 | 63 | 314 | 7.0 | 15.0 | 0.00 | 0.03 | 0.03 | 46 | |
| 20260510001423 | 63 | 321 | 7.0 | 15.0 | 0.00 | 0.03 | 0.03 | 45 | |
| 20260510000901 | 64 | 333 | 6.0 | 15.0 | 0.00 | 0.03 | 0.03 | 45 | |
| 20260510000421 | 64 | 313 | 5.0 | 16.0 | 0.00 | 0.03 | 0.03 | 43 | |
| 20260509235858 | 64 | 315 | 9.0 | 18.0 | 0.00 | 0.03 | 0.03 | 42 | |
| 20260509235418 | 65 | 310 | 10.0 | 24.0 | 0.00 | 0.03 | 0.03 | 41 | |
| 20260509234918 | 65 | 310 | 15.0 | 35.0 | 0.00 | 0.03 | 0.03 | 41 | |
| 20260509234356 | 65 | 305 | 11.0 | 42.0 | 0.00 | 0.03 | 0.03 | 41 | |
| 20260509233916 | 65 | 302 | 9.0 | 18.0 | 0.00 | 0.03 | 0.03 | 42 | |
| 20260509233353 | 66 | 314 | 16.0 | 41.0 | 0.00 | 0.03 | 0.03 | 40 | |
| 20260509232853 | 66 | 310 | 18.0 | 31.0 | 0.00 | 0.03 | 0.03 | 39 | |
| 20260509232351 | 66 | 308 | 14.0 | 26.0 | 0.00 | 0.03 | 0.03 | 41 | |
| 20260509231850 | 67 | 301 | 12.0 | 24.0 | 0.00 | 0.03 | 0.03 | 39 | |
| 20260509231350 | 68 | 308 | 12.0 | 27.0 | 0.00 | 0.03 | 0.03 | 38 | |
| 20260509230849 | 69 | 327 | 15.0 | 28.0 | 0.00 | 0.03 | 0.03 | 38 | |
| 20260509230348 | 69 | 338 | 14.0 | 35.0 | 0.00 | 0.03 | 0.03 | 38 | |
| 20260509225846 | 70 | 340 | 13.0 | 31.0 | 0.00 | 0.03 | 0.03 | 37 | |
| 20260509225345 | 70 | 323 | 17.0 | 38.0 | 0.00 | 0.03 | 0.03 | 36 | |
| 20260509224844 | 70 | 329 | 14.0 | 38.0 | 0.00 | 0.03 | 0.03 | 37 | |
| 20260509224405 | 70 | 322 | 14.0 | 28.0 | 0.00 | 0.03 | 0.03 | 36 | |
| 20260509223843 | 70 | 341 | 19.0 | 43.0 | 0.00 | 0.03 | 0.03 | 35 | |
| 20260509223342 | 71 | 314 | 20.0 | 43.0 | 0.00 | 0.03 | 0.03 | 34 | |
| 20260509222901 | 70 | 311 | 21.0 | 39.0 | 0.00 | 0.03 | 0.03 | 33 | |
| 20260509222340 | 71 | 303 | 19.0 | 38.0 | 0.00 | 0.03 | 0.03 | 33 | |
| 20260509221859 | 71 | 323 | 19.0 | 34.0 | 0.00 | 0.03 | 0.03 | 34 | |
| 20260509221337 | 70 | 313 | 19.0 | 39.0 | 0.00 | 0.03 | 0.03 | 34 | |
| 20260509220836 | 71 | 305 | 20.0 | 37.0 | 0.00 | 0.03 | 0.03 | 32 | |
| 20260509220336 | 71 | 300 | 25.0 | 47.0 | 0.00 | 0.03 | 0.03 | 32 | |
| 20260509215834 | 71 | 305 | 24.0 | 42.0 | 0.00 | 0.03 | 0.03 | 32 | |
| 20260509215333 | 71 | 312 | 29.0 | 53.0 | 0.00 | 0.03 | 0.03 | 33 | |
| 20260509214832 | 70 | 306 | 26.0 | 54.0 | 0.00 | 0.03 | 0.03 | 34 | |
| 20260509214331 | 68 | 308 | 18.0 | 38.0 | 0.00 | 0.03 | 0.03 | 36 | |
| 20260509213851 | 68 | 302 | 14.0 | 26.0 | 0.00 | 0.03 | 0.03 | 36 | |
| 20260509213329 | 69 | 288 | 19.0 | 41.0 | 0.00 | 0.03 | 0.03 | 35 | |
| 20260509212828 | 70 | 296 | 21.0 | 40.0 | 0.00 | 0.03 | 0.03 | 35 | |
| 20260509212328 | 70 | 297 | 17.0 | 37.0 | 0.00 | 0.03 | 0.03 | 36 | |
| 20260509211847 | 69 | 311 | 16.0 | 33.0 | 0.00 | 0.03 | 0.03 | 35 | |
| 20260509211346 | 69 | 295 | 20.0 | 35.0 | 0.00 | 0.03 | 0.03 | 35 | |
| 20260509210824 | 69 | 281 | 19.0 | 36.0 | 0.00 | 0.03 | 0.03 | 35 | |
| 20260509210324 | 69 | 296 | 14.0 | 25.0 | 0.00 | 0.03 | 0.03 | 37 | |
| 20260509205822 | 68 | 289 | 14.0 | 38.0 | 0.00 | 0.03 | 0.03 | 37 | |
| 20260509205322 | 68 | 311 | 17.0 | 37.0 | 0.00 | 0.03 | 0.03 | 36 | |
| 20260509204841 | 69 | 283 | 18.0 | 38.0 | 0.00 | 0.03 | 0.03 | 36 | |
| 20260509204319 | 69 | 306 | 12.0 | 35.0 | 0.00 | 0.03 | 0.03 | 38 |